WZZ115 LBWN-UKLI

Flight info

Callsign WZZ115
Flight time 1h 9m
Altitude 36000
Route BALIK L619 ARGES DCT BUKOV
Aircraft A320/M-SDE3FGHIRWY/LB1

Departure

Time 2026-05-07 10:25
Airport Varna Airport (LBWN)

Arrival

Time 2026-05-07 11:34
Airport Ivano-Frankivsk International Airport (UKLI)
Time Latitude Longitude Altitude Speed Heading
2026-05-07 10:01 43.23515 27.82618 222 ft 0 kts
2026-05-07 10:20 43.23523 27.82619 222 ft 5 kts
2026-05-07 10:20 43.23560 27.82612 222 ft 6 kts 323°
2026-05-07 10:20 43.23571 27.82551 222 ft 8 kts 275°
2026-05-07 10:21 43.23578 27.82451 222 ft 13 kts 276°
2026-05-07 10:21 43.23589 27.82321 222 ft 7 kts 272°
2026-05-07 10:21 43.23563 27.82261 222 ft 8 kts 206°
2026-05-07 10:21 43.23499 27.82247 222 ft 10 kts 198°
2026-05-07 10:22 43.23481 27.82155 222 ft 12 kts 275°
2026-05-07 10:22 43.23491 27.82035 222 ft 14 kts 276°
2026-05-07 10:22 43.23503 27.81898 222 ft 15 kts 277°
2026-05-07 10:22 43.23517 27.81740 222 ft 18 kts 277°
2026-05-07 10:23 43.23532 27.81552 222 ft 21 kts 276°
2026-05-07 10:23 43.23551 27.81353 222 ft 21 kts 277°
2026-05-07 10:23 43.23570 27.81146 222 ft 23 kts 277°
2026-05-07 10:23 43.23568 27.80985 223 ft 14 kts 248°
2026-05-07 10:24 43.23487 27.80921 222 ft 15 kts 174°
2026-05-07 10:24 43.23385 27.80991 221 ft 18 kts 145°
2026-05-07 10:24 43.23319 27.81135 221 ft 19 kts 98°
2026-05-07 10:24 43.23290 27.81459 221 ft 63 kts 97°
2026-05-07 10:25 43.23214 27.82324 223 ft 118 kts 97°
2026-05-07 10:25 43.23100 27.83582 508 ft 137 kts 97°
2026-05-07 10:25 43.22979 27.84883 1137 ft 137 kts 100°
2026-05-07 10:25 43.22845 27.86206 1600 ft 148 kts 100°
2026-05-07 10:26 43.22690 27.87701 1867 ft 169 kts 101°
2026-05-07 10:26 43.22558 27.89417 2131 ft 194 kts 90°
2026-05-07 10:26 43.23182 27.91186 2480 ft 228 kts 44°
2026-05-07 10:26 43.24699 27.92078 2936 ft 254 kts
2026-05-07 10:27 43.26468 27.91596 3648 ft 264 kts 337°
2026-05-07 10:27 43.28098 27.90495 4641 ft 263 kts 330°
2026-05-07 10:27 43.29688 27.89279 5667 ft 262 kts 331°
2026-05-07 10:27 43.31302 27.88107 6605 ft 263 kts 333°
2026-05-07 10:28 43.32954 27.87016 7492 ft 264 kts 335°
2026-05-07 10:28 43.34642 27.85996 8358 ft 267 kts 337°
2026-05-07 10:28 43.36383 27.85010 9124 ft 274 kts 338°
2026-05-07 10:28 43.38166 27.84041 9963 ft 276 kts 338°
2026-05-07 10:29 43.39874 27.82780 10593 ft 284 kts 321°
2026-05-07 10:29 43.41220 27.80753 11149 ft 295 kts 308°
2026-05-07 10:29 43.42495 27.78388 11354 ft 318 kts 307°
2026-05-07 10:30 43.45209 27.73183 12148 ft 344 kts 306°
2026-05-07 10:30 43.46610 27.70480 12755 ft 350 kts 306°
2026-05-07 10:30 43.48015 27.67777 13370 ft 354 kts 306°
2026-05-07 10:30 43.49481 27.64968 14000 ft 359 kts 306°
2026-05-07 10:31 43.50928 27.62196 14561 ft 362 kts 306°
2026-05-07 10:31 43.52406 27.59369 15159 ft 364 kts 306°
2026-05-07 10:31 43.53892 27.56524 15803 ft 365 kts 307°
2026-05-07 10:31 43.55381 27.53670 16347 ft 369 kts 306°
2026-05-07 10:32 43.56889 27.50773 16885 ft 372 kts 306°
2026-05-07 10:32 43.58386 27.47895 17449 ft 376 kts 306°
2026-05-07 10:32 43.59916 27.44948 17984 ft 379 kts 306°
2026-05-07 10:32 43.61463 27.41970 18526 ft 383 kts 306°
2026-05-07 10:33 43.63020 27.38973 19064 ft 385 kts 306°
2026-05-07 10:33 43.64585 27.35957 19715 ft 384 kts 306°
2026-05-07 10:33 43.66143 27.32953 20251 ft 386 kts 306°
2026-05-07 10:33 43.67800 27.30047 20821 ft 387 kts 313°
2026-05-07 10:34 43.69791 27.27535 21285 ft 389 kts 320°
2026-05-07 10:34 43.71171 27.25948 21617 ft 391 kts 320°
2026-05-07 10:34 43.73270 27.23527 22123 ft 392 kts 319°
2026-05-07 10:34 43.76055 27.20300 22808 ft 394 kts 319°
2026-05-07 10:35 43.78155 27.17859 23317 ft 395 kts 319°
2026-05-07 10:35 43.79581 27.16201 23650 ft 396 kts 319°
2026-05-07 10:35 43.81664 27.13775 24059 ft 397 kts 319°
2026-05-07 10:35 43.83796 27.11295 24464 ft 399 kts 319°
2026-05-07 10:36 43.85936 27.08803 24879 ft 400 kts 319°
2026-05-07 10:36 43.88062 27.06318 25250 ft 402 kts 319°
2026-05-07 10:36 43.90191 27.03829 25615 ft 404 kts 319°
2026-05-07 10:36 43.92352 27.01308 25985 ft 406 kts 319°
2026-05-07 10:37 43.94521 26.98774 26365 ft 408 kts 319°
2026-05-07 10:37 43.96707 26.96219 26756 ft 409 kts 319°
2026-05-07 10:37 43.98858 26.93698 27127 ft 411 kts 319°
2026-05-07 10:37 44.01051 26.91125 27513 ft 413 kts 319°
2026-05-07 10:38 44.03250 26.88535 27903 ft 415 kts 319°
2026-05-07 10:38 44.05476 26.85978 28273 ft 417 kts 323°
2026-05-07 10:38 44.07958 26.83861 28619 ft 421 kts 332°
2026-05-07 10:38 44.10699 26.82361 28940 ft 426 kts 341°
2026-05-07 10:39 44.13580 26.81536 29331 ft 429 kts 349°
2026-05-07 10:39 44.16540 26.80928 29854 ft 427 kts 348°
2026-05-07 10:39 44.19472 26.80318 30366 ft 425 kts 348°
2026-05-07 10:39 44.22399 26.79703 30827 ft 423 kts 348°
2026-05-07 10:40 44.25312 26.79086 31290 ft 421 kts 348°
2026-05-07 10:40 44.28166 26.78481 31750 ft 419 kts 348°
2026-05-07 10:40 44.31040 26.77876 32228 ft 417 kts 348°
2026-05-07 10:40 44.33905 26.77277 32698 ft 415 kts 348°
2026-05-07 10:41 44.36757 26.76681 33165 ft 413 kts 348°
2026-05-07 10:41 44.39609 26.76083 33604 ft 412 kts 348°
2026-05-07 10:41 44.42437 26.75483 34058 ft 411 kts 347°
2026-05-07 10:41 44.45258 26.74880 34448 ft 409 kts 347°
2026-05-07 10:42 44.48073 26.74278 34788 ft 409 kts 347°
2026-05-07 10:42 44.50853 26.73686 35113 ft 409 kts 347°
2026-05-07 10:42 44.53697 26.73080 35434 ft 409 kts 347°
2026-05-07 10:42 44.56476 26.72489 35725 ft 409 kts 347°
2026-05-07 10:43 44.59291 26.71893 35988 ft 410 kts 348°
2026-05-07 10:43 44.62121 26.71290 36070 ft 414 kts 348°
2026-05-07 10:43 44.67868 26.70059 36076 ft 420 kts 348°
2026-05-07 10:44 44.73650 26.68820 36065 ft 421 kts 348°
2026-05-07 10:44 44.79437 26.67580 36089 ft 421 kts 348°
2026-05-07 10:45 44.85246 26.66343 36080 ft 423 kts 348°
2026-05-07 10:45 44.91061 26.65095 36081 ft 423 kts 348°
2026-05-07 10:46 44.96885 26.63836 36084 ft 423 kts 348°
2026-05-07 10:46 45.02705 26.62576 36096 ft 423 kts 348°
2026-05-07 10:47 45.08495 26.61321 36080 ft 424 kts 348°
2026-05-07 10:47 45.14322 26.60053 36071 ft 424 kts 348°
2026-05-07 10:48 45.20165 26.58784 36077 ft 425 kts 348°
2026-05-07 10:48 45.26010 26.57524 36084 ft 425 kts 348°
2026-05-07 10:49 45.31864 26.56250 36082 ft 426 kts 348°
2026-05-07 10:49 45.37725 26.54965 36090 ft 426 kts 348°
2026-05-07 10:50 45.43588 26.53669 36088 ft 426 kts 348°
2026-05-07 10:50 45.49456 26.52387 36084 ft 427 kts 348°
2026-05-07 10:51 45.55337 26.51095 36076 ft 427 kts 348°
2026-05-07 10:51 45.61217 26.49799 36064 ft 428 kts 348°
2026-05-07 10:52 45.67107 26.48493 36065 ft 428 kts 348°
2026-05-07 10:52 45.72995 26.47179 36068 ft 428 kts 348°
2026-05-07 10:53 45.78907 26.45874 36070 ft 429 kts 348°
2026-05-07 10:53 45.84766 26.44574 36056 ft 429 kts 348°
2026-05-07 10:54 45.90674 26.43257 36040 ft 430 kts 348°
2026-05-07 10:54 45.96591 26.41939 36036 ft 430 kts 348°
2026-05-07 10:55 46.02497 26.40612 36044 ft 429 kts 348°
2026-05-07 10:55 46.08396 26.39284 36045 ft 429 kts 348°
2026-05-07 10:56 46.14297 26.37969 36049 ft 429 kts 348°
2026-05-07 10:56 46.20197 26.36638 36029 ft 429 kts 347°
2026-05-07 10:57 46.26096 26.35295 36023 ft 430 kts 347°
2026-05-07 10:57 46.32017 26.33951 36040 ft 430 kts 348°
2026-05-07 10:58 46.37944 26.32620 36044 ft 431 kts 348°
2026-05-07 10:58 46.43865 26.31279 36051 ft 431 kts 347°
2026-05-07 10:59 46.49785 26.29920 36048 ft 431 kts 347°
2026-05-07 10:59 46.55677 26.28572 36037 ft 431 kts 347°
2026-05-07 11:00 46.61606 26.27216 36025 ft 432 kts 347°
2026-05-07 11:00 46.67552 26.25858 36032 ft 432 kts 347°
2026-05-07 11:01 46.73506 26.24478 36027 ft 433 kts 347°
2026-05-07 11:01 46.79460 26.23108 36024 ft 433 kts 347°
2026-05-07 11:02 46.85399 26.21740 36025 ft 433 kts 347°
2026-05-07 11:02 46.91332 26.20362 36020 ft 434 kts 347°
2026-05-07 11:03 46.97324 26.18976 36013 ft 435 kts 347°
2026-05-07 11:03 47.03276 26.17603 36013 ft 436 kts 347°
2026-05-07 11:04 47.09284 26.16203 36008 ft 437 kts 347°
2026-05-07 11:04 47.15287 26.14803 36017 ft 437 kts 347°
2026-05-07 11:05 47.21306 26.13401 36007 ft 437 kts 347°
2026-05-07 11:05 47.27295 26.11991 36018 ft 437 kts 347°
2026-05-07 11:06 47.33317 26.10575 36005 ft 438 kts 347°
2026-05-07 11:06 47.39354 26.09159 36003 ft 439 kts 347°
2026-05-07 11:07 47.45368 26.07730 35964 ft 440 kts 347°
2026-05-07 11:07 47.48402 26.07005 35699 ft 440 kts 347°
2026-05-07 11:07 47.51422 26.06285 35446 ft 440 kts 347°
2026-05-07 11:08 47.54451 26.05568 35193 ft 440 kts 347°
2026-05-07 11:08 47.57443 26.04864 34945 ft 441 kts 347°
2026-05-07 11:08 47.60496 26.04142 34685 ft 441 kts 347°
2026-05-07 11:08 47.63546 26.03415 33873 ft 447 kts 348°
2026-05-07 11:09 47.66604 26.02685 32956 ft 451 kts 348°
2026-05-07 11:09 47.69723 26.01943 32048 ft 455 kts 348°
2026-05-07 11:09 47.72880 26.01188 31109 ft 460 kts 348°
2026-05-07 11:09 47.76046 26.00427 30304 ft 461 kts 348°
2026-05-07 11:10 47.79193 25.99670 29711 ft 456 kts 348°
2026-05-07 11:10 47.82276 25.98930 29099 ft 451 kts 348°
2026-05-07 11:10 47.85358 25.98194 28498 ft 445 kts 348°
2026-05-07 11:10 47.88405 25.97472 27891 ft 440 kts 348°
2026-05-07 11:11 47.91402 25.96664 27293 ft 435 kts 343°
2026-05-07 11:11 47.94253 25.95227 26720 ft 427 kts 334°
2026-05-07 11:11 47.96822 25.93190 26150 ft 420 kts 324°
2026-05-07 11:11 47.99148 25.90578 25593 ft 413 kts 316°
2026-05-07 11:12 48.01284 25.87735 25053 ft 410 kts 316°
2026-05-07 11:12 48.03412 25.84904 24513 ft 407 kts 315°
2026-05-07 11:12 48.05490 25.82141 23995 ft 404 kts 315°
2026-05-07 11:12 48.07592 25.79345 23465 ft 402 kts 316°
2026-05-07 11:13 48.09671 25.76572 22929 ft 399 kts 315°
2026-05-07 11:13 48.11730 25.73826 22437 ft 395 kts 316°
2026-05-07 11:13 48.13770 25.71104 21972 ft 391 kts 315°
2026-05-07 11:13 48.15790 25.68400 21516 ft 387 kts 315°
2026-05-07 11:14 48.17785 25.65725 21065 ft 383 kts 315°
2026-05-07 11:14 48.19757 25.63075 20621 ft 379 kts 315°
2026-05-07 11:14 48.21713 25.60440 20166 ft 376 kts 316°
2026-05-07 11:14 48.23649 25.57835 19708 ft 373 kts 316°
2026-05-07 11:15 48.25578 25.55242 19241 ft 370 kts 316°
2026-05-07 11:15 48.27491 25.52672 18775 ft 368 kts 316°
2026-05-07 11:15 48.29391 25.50115 18288 ft 366 kts 316°
2026-05-07 11:15 48.31281 25.47566 17768 ft 364 kts 316°
2026-05-07 11:16 48.33135 25.45063 17281 ft 361 kts 316°
2026-05-07 11:16 48.34995 25.42546 16787 ft 358 kts 315°
2026-05-07 11:16 48.36840 25.40045 16295 ft 356 kts 315°
2026-05-07 11:16 48.38666 25.37569 16016 ft 348 kts 315°
2026-05-07 11:17 48.40452 25.35147 15592 ft 345 kts 315°
2026-05-07 11:17 48.42233 25.32728 15100 ft 345 kts 315°
2026-05-07 11:17 48.44019 25.30300 14601 ft 346 kts 315°
2026-05-07 11:17 48.45804 25.27869 14095 ft 346 kts 315°
2026-05-07 11:18 48.47595 25.25425 13566 ft 347 kts 315°
2026-05-07 11:18 48.49386 25.22985 13036 ft 346 kts 315°
2026-05-07 11:18 48.51170 25.20552 12535 ft 345 kts 315°
2026-05-07 11:18 48.52947 25.18124 12015 ft 344 kts 315°
2026-05-07 11:19 48.54718 25.15699 11505 ft 343 kts 315°
2026-05-07 11:19 48.56486 25.13273 11003 ft 342 kts 315°
2026-05-07 11:19 48.58248 25.10857 10529 ft 341 kts 315°
2026-05-07 11:19 48.59971 25.08497 10400 ft 328 kts 315°
2026-05-07 11:20 48.61636 25.06215 10291 ft 318 kts 315°
2026-05-07 11:20 48.63246 25.04009 10165 ft 307 kts 315°
2026-05-07 11:20 48.64806 25.01869 10007 ft 300 kts 315°
2026-05-07 11:20 48.66333 24.99770 9833 ft 295 kts 315°
2026-05-07 11:21 48.67856 24.97670 9426 ft 296 kts 314°
2026-05-07 11:21 48.69363 24.95589 9100 ft 296 kts 315°
2026-05-07 11:21 48.70879 24.93488 8723 ft 296 kts 315°
2026-05-07 11:21 48.72382 24.91403 8481 ft 292 kts 315°
2026-05-07 11:22 48.73883 24.89326 8134 ft 291 kts 315°
2026-05-07 11:22 48.75367 24.87277 7973 ft 287 kts 315°
2026-05-07 11:22 48.76840 24.85240 7861 ft 286 kts 315°
2026-05-07 11:22 48.78309 24.83209 7720 ft 285 kts 315°
2026-05-07 11:23 48.79770 24.81185 7605 ft 284 kts 315°
2026-05-07 11:23 48.81228 24.79164 7475 ft 283 kts 314°
2026-05-07 11:23 48.82683 24.77144 7356 ft 284 kts 314°
2026-05-07 11:23 48.84140 24.75113 7233 ft 284 kts 313°
2026-05-07 11:24 48.85592 24.73087 7111 ft 283 kts 313°
2026-05-07 11:24 48.87042 24.71062 6980 ft 283 kts 314°
2026-05-07 11:24 48.88497 24.69049 6676 ft 283 kts 317°
2026-05-07 11:24 48.90234 24.67669 6392 ft 285 kts 345°
2026-05-07 11:25 48.92209 24.67652 6110 ft 287 kts 13°
2026-05-07 11:25 48.93959 24.68957 5828 ft 286 kts 41°
2026-05-07 11:25 48.95153 24.71330 5546 ft 284 kts 69°
2026-05-07 11:25 48.95525 24.74229 5269 ft 279 kts 96°
2026-05-07 11:26 48.95107 24.77076 4983 ft 275 kts 110°
2026-05-07 11:26 48.94532 24.79859 4723 ft 277 kts 110°
2026-05-07 11:26 48.93953 24.82658 4440 ft 277 kts 111°
2026-05-07 11:26 48.93378 24.85442 4167 ft 275 kts 111°
2026-05-07 11:27 48.92811 24.88196 3898 ft 272 kts 109°
2026-05-07 11:27 48.92437 24.90013 3727 ft 271 kts 110°
2026-05-07 11:27 48.91874 24.92751 3485 ft 270 kts 111°
2026-05-07 11:27 48.91366 24.95486 3346 ft 266 kts 102°
2026-05-07 11:28 48.91309 24.98269 3216 ft 261 kts 94°
2026-05-07 11:28 48.90944 25.00871 3095 ft 246 kts 116°
2026-05-07 11:28 48.89988 25.02910 2983 ft 232 kts 141°
2026-05-07 11:28 48.88651 25.04088 2988 ft 216 kts 165°
2026-05-07 11:29 48.87187 25.04393 2995 ft 211 kts 186°
2026-05-07 11:29 48.85793 25.03870 2990 ft 206 kts 205°
2026-05-07 11:29 48.84608 25.02612 2977 ft 210 kts 225°
2026-05-07 11:29 48.83796 25.00791 2963 ft 210 kts 244°
2026-05-07 11:30 48.83477 24.97902 2962 ft 215 kts 273°
2026-05-07 11:30 48.83674 24.96394 2961 ft 217 kts 283°
2026-05-07 11:30 48.84074 24.94183 2961 ft 218 kts 282°
2026-05-07 11:30 48.84459 24.91989 2964 ft 210 kts 282°
2026-05-07 11:31 48.84824 24.89875 2959 ft 203 kts 282°
2026-05-07 11:31 48.85178 24.87823 2960 ft 199 kts 281°
2026-05-07 11:31 48.85531 24.85785 2968 ft 198 kts 282°
2026-05-07 11:31 48.85860 24.83866 2796 ft 185 kts 279°
2026-05-07 11:32 48.86461 24.80265 2292 ft 157 kts 279°
2026-05-07 11:32 48.86714 24.78746 2061 ft 142 kts 277°
2026-05-07 11:32 48.86949 24.77316 1872 ft 139 kts 278°
2026-05-07 11:33 48.87176 24.75867 1687 ft 140 kts 279°
2026-05-07 11:33 48.87404 24.74443 1506 ft 140 kts 280°
2026-05-07 11:33 48.87645 24.72980 1304 ft 145 kts 283°
2026-05-07 11:33 48.87887 24.71490 1108 ft 144 kts 283°
2026-05-07 11:34 48.88132 24.70014 941 ft 144 kts 280°
2026-05-07 11:34 48.88343 24.68714 923 ft 103 kts 284°
2026-05-07 11:34 48.88476 24.67909 925 ft 54 kts 284°
2026-05-07 11:34 48.88547 24.67473 928 ft 37 kts 283°
2026-05-07 11:35 48.88584 24.67339 925 ft 7 kts 268°
2026-05-07 11:35 48.88565 24.67369 929 ft 8 kts 107°
2026-05-07 11:35 48.88543 24.67502 928 ft 18 kts 104°
2026-05-07 11:35 48.88506 24.67724 925 ft 26 kts 104°
2026-05-07 11:36 48.88458 24.68020 926 ft 32 kts 104°
2026-05-07 11:36 48.88403 24.68355 925 ft 34 kts 104°
2026-05-07 11:36 48.88341 24.68731 922 ft 40 kts 104°
2026-05-07 11:36 48.88272 24.69156 920 ft 42 kts 104°
2026-05-07 11:37 48.88201 24.69587 926 ft 38 kts 104°
2026-05-07 11:37 48.88149 24.69904 920 ft 25 kts 104°
2026-05-07 11:37 48.88136 24.70069 914 ft 13 kts 63°
2026-05-07 11:37 48.88215 24.70163 912 ft 16 kts 33°
2026-05-07 11:38 48.88316 24.70265 917 ft 18 kts 33°
2026-05-07 11:38 48.88416 24.70362 912 ft 12 kts 22°
2026-05-07 11:38 48.88503 24.70336 913 ft 14 kts 342°
2026-05-07 11:38 48.88601 24.70289 913 ft 16 kts 342°
2026-05-07 11:39 48.88685 24.70275 913 ft 10 kts 36°
2026-05-07 11:39 48.88705 24.70388 913 ft 13 kts 81°
2026-05-07 11:39 48.88688 24.70466 915 ft 8 kts 167°
2026-05-07 11:39 48.88660 24.70474 912 ft 0 kts 167°